Tracking 35331 objects as of 16-Sep-2026
HD Live streaming from Space Station
objects crossing your sky now

GLOBALSTAR M105

Track GLOBALSTAR M105 now!
10-day predictions
GLOBALSTAR M105 is classified as:


NORAD ID: 100331
Int'l Code: 2026-185G
Launch date: August 16, 2026
Source: United States (US)
Launch site: AIR FORCE EASTERN TEST RANGE (AFETR)
Your satellite tracking list
Your tracking list is empty




NASA's NSSDC Master Catalog

Two Line Element Set (TLE):
1 A0331U 26185G   26257.60483673  .00000225  00000-0  79601-4 0  9994
2 A0331  51.9950 110.8855 0008844 328.2922  31.7501 14.63940762  4326
Source of the keplerian elements: AFSPC